Weather History for Wichita Jabara, KS

Change the Weather History Date:

Friday, September 13, 2013

  Actual Average (KICT) Record (KICT)
Temperature  
Mean Temperature 72 °F 72 °F  
Max Temperature 79 °F 84 °F 104 °F (1893)
Min Temperature 64 °F 61 °F 37 °F (1890)
Degree Days  
Heating Degree Days 0 1  
Month to date heating degree days 3  
Since 1 July heating degree days 4  
Cooling Degree Days 7 8  
Month to date cooling degree days 130  
Year to date cooling degree days 1557  
Growing Degree Days 22 (Base 50)    
Moisture  
Dew Point 51 °F    
Average Humidity 51    
Maximum Humidity 78    
Minimum Humidity 38    
Precipitation  
Precipitation 0.00 in 0.10 in 2.12 in (1985)
Month to date precipitation 1.40  
Year to date precipitation 25.49  
Snow  
Snow 0.00 in 0.00 in 0.00 in (2007)
Month to date snowfall 0.0  
Since 1 July snowfall 0.0  
Since 1 September snowfall 0.0  
Snow Depth -    
Sea Level Pressure  
Sea Level Pressure 30.09 in    
Wind  
Wind Speed 9 mph (ENE)    
Max Wind Speed 14 mph    
Max Gust Speed 17 mph    
Visibility 10 miles    
Events      
T = Trace of Precipitation, MM = Missing Value Source: NWS Daily Summary

Daily Weather History Graph

Daily Weather History Graph

Search for Another Location

Airport:

Trip Planner

Search our weather history database for the weather conditions in past years. The results will help you decide how hot, cold, wet, or windy it might be!

Date:

Astronomy

Sep. 13, 2013 Rise Set
Actual Time 7:09 AM CDT 7:39 PM CDT
Civil Twilight 6:42 AM CDT 8:05 PM CDT
Nautical Twilight 6:11 AM CDT 8:36 PM CDT
Astronomical Twilight 5:40 AM CDT 9:08 PM CDT
Moon 3:25 PM CDT (9/13) 12:44 AM CDT (9/13)
Length of Visible Light 13h 22m
Length of Day
12h 30m
First Quarter, 61% of the Moon is Illuminated
Sep 13
First Quarter
Sep 19
Full
Sep 26
Last Quarter
Oct 4
New
Oct 11
First Quarter

Hourly Weather History & Observations

Time (CDT) Temp. Dew Point Humidity Pressure Visibility Wind Dir Wind Speed Gust Speed Precip Events Conditions
12:54 AM 70.0 °F 63.0 °F 78% 30.11 in 10.0 mi NE 8.1 mph - N/A   Partly Cloudy
1:54 AM 68.0 °F 57.9 °F 70% 30.11 in 10.0 mi NE 8.1 mph - N/A   Clear
2:54 AM 66.9 °F 55.9 °F 68% 30.11 in 10.0 mi NE 8.1 mph - N/A   Clear
3:54 AM 66.9 °F 54.0 °F 63% 30.10 in 10.0 mi ENE 8.1 mph - N/A   Mostly Cloudy
4:54 AM 68.0 °F 50.0 °F 52% 30.11 in 10.0 mi East 10.4 mph - N/A   Overcast
5:54 AM 66.9 °F 48.9 °F 52% 30.12 in 10.0 mi East 12.7 mph 17.3 mph N/A   Overcast
6:54 AM 66.0 °F 48.0 °F 52% 30.13 in 10.0 mi East 9.2 mph - N/A   Mostly Cloudy
7:54 AM 66.0 °F 48.0 °F 52% 30.14 in 10.0 mi East 11.5 mph - N/A   Mostly Cloudy
8:54 AM 66.0 °F 48.9 °F 54% 30.14 in 10.0 mi East 9.2 mph - N/A   Overcast
9:54 AM 68.0 °F 50.0 °F 52% 30.14 in 10.0 mi East 10.4 mph - N/A   Scattered Clouds
10:54 AM 72.0 °F 50.0 °F 46% 30.15 in 10.0 mi East 13.8 mph - N/A   Partly Cloudy
11:54 AM 73.9 °F 50.0 °F 43% 30.14 in 10.0 mi East 9.2 mph - N/A   Partly Cloudy
12:54 PM 73.9 °F 51.1 °F 45% 30.12 in 10.0 mi East 8.1 mph - N/A   Scattered Clouds
1:54 PM 75.0 °F 50.0 °F 41% 30.10 in 10.0 mi Variable 4.6 mph - N/A   Clear
2:54 PM 77.0 °F 51.1 °F 40% 30.07 in 10.0 mi NE 9.2 mph - N/A   Clear
3:54 PM 78.1 °F 51.1 °F 39% 30.05 in 10.0 mi Variable 3.5 mph - N/A   Clear
4:54 PM 75.9 °F 48.9 °F 38% 30.03 in 10.0 mi ENE 11.5 mph - N/A   Clear
5:54 PM 75.0 °F 48.0 °F 38% 30.02 in 10.0 mi East 9.2 mph - N/A   Clear
6:54 PM 73.9 °F 48.9 °F 41% 30.02 in 10.0 mi ENE 6.9 mph - N/A   Clear
7:54 PM 72.0 °F 50.0 °F 46% 30.02 in 10.0 mi ENE 5.8 mph - N/A   Clear
8:54 PM 70.0 °F 50.0 °F 49% 30.03 in 10.0 mi East 8.1 mph - N/A   Clear
9:54 PM 68.0 °F 50.0 °F 52% 30.04 in 10.0 mi East 5.8 mph - N/A   Clear
10:54 PM 68.0 °F 50.0 °F 52% 30.05 in 10.0 mi East 8.1 mph - N/A   Clear
11:54 PM 64.9 °F 50.0 °F 58% 30.04 in 10.0 mi ESE 4.6 mph - N/A   Clear